Other Surface Observations
Issued by NWS

Home | Current Version | Previous Version | Text Only | Print | Product List | Glossary On
Versions: 1 2 3 4 5 6 7 8 9 10 11 12 13 14 15 16 17 18 19 20 21 22 23 24 25 26 27 28 29 30 31 32 33 34 35 36 37 38 39 40 41 42 43 44 45 46 47 48 49 50
000
SXUS52 KTAE 251218
OSOTAE
OSOTAE
North Florida/South Alabama/Southwest Georgia Weather Roundup
National Weather Service Tallahassee Florida
800 AM EDT MON JUL 25 2016

Note: "fair" indicates few or no clouds below 12,000 feet with no
significant weather and/or obstructions to visibility.

!FLZ017-115-028-034-025-251300
...North Florida...

CITY           SKY/WX    TMP DP  RH WIND       PRES   REMARKS
TALLAHASSEE    MOSUNNY   77  74  90 E9        30.05R
APALACHICOLA   MOSUNNY   83  76  79 SE7       30.01R HX  91
PERRY          SUNNY     74  71  89 SE3       30.07R
CROSS CITY       N/A     75  71  87 CALM      30.06R
JACKSONVILLE   MOSUNNY   76  73  91 CALM      30.08R
$$

!FLZ112-006-005-002-011-251300
...Florida Panhandle...

CITY           SKY/WX    TMP DP  RH WIND       PRES   REMARKS
MARIANNA       SUNNY     76  76 100 CALM      30.04R
BONIFAY        NOT AVBL
PANAMA CITY NW FAIR      77  74  90 NE5       30.02R
TYNDALL AFB    SUNNY     78  75  90 NE6       30.02R
TYND DRONE APT NOT AVBL
DE FUNIAK SPR  FAIR      75  74  98 E6        30.04S
EGLIN AFB      MOSUNNY   79  74  85 E6        30.01R
DESTIN         SUNNY     83  78  85 E8        30.01R HX  93
HURLBURT       MOSUNNY   80  75  85 NE6       29.99R
CRESTVIEW      SUNNY     75  73  93 NE6       30.04S
PENSACOLA      MOSUNNY   80  75  84 NE6       30.00R
$$

!ALZ063-066-251300
...South Alabama...

CITY           SKY/WX    TMP DP  RH WIND       PRES   REMARKS
DOTHAN         SUNNY     76  75  97 E5        30.09R
OZARK CAIRNS   SUNNY     75  75 100 NE6       30.05R
FT RUCKER HELI SUNNY     76  73  91 CALM      30.04R
RUCKER HELI 3  FAIR      76  74  93 CALM      30.07R
RUCKER HELI 2  FAIR      77  74  90 E5        30.05R
FLORALA APT    MOSUNNY   75  73  93 E3        30.06R
ANDALUSIA      SUNNY     79  73  82 NE3       30.05R
TROY           SUNNY     75  73  93 NE3       30.07R
EUFALA         FAIR      78  75  90 CALM      30.06R
MOBILE         MOCLDY    77  74  90 NE10      30.00R
$$

!GAZ120>161-251300
...Southwest and South Central Georgia...

CITY           SKY/WX    TMP DP  RH WIND       PRES   REMARKS
THOMASVILLE      N/A     77  77 100 CALM      30.08R
BAINBRIDGE     SUNNY     77  73  88 CALM      30.06R
MOODY AFB      SUNNY     73  72  95 SE5       30.07R
VALDOSTA       MOSUNNY   75  74  96 SE3       30.07R
MOULTRIE       SUNNY     75  73  94 CALM      30.08R
BLAKELY        MOSUNNY   77  73  88 CALM      30.07R
ALBANY         MOSUNNY   76  74  93 CALM      30.08R
TIFTON         FAIR      74  74 100 CALM      30.08R
FITZGERALD     PTSUNNY   80  78  94 CALM      30.10S
CORDELE        FAIR      80  75  84 CALM      30.08S
AMERICUS       FAIR      77  75  94 CALM      30.10R
HOMERVILLE     FAIR      73  72  94 CALM      30.09R
$$

!GMZ750-755-770-775-251300
...Coastal and Buoy Obs...

STATION/POSITION TIME  TEMP    WIND        PRES    VSBY  WAVE
                       AIR SEA DIR/SP/G                  HT/PER
                 (UTC) (F)     (DEG/KT/KT) (MB)    (MI)  (FT/S)
KEATON BEACH     1200   75      90/  9/ 10 1017.3R
CEDAR KEY        1200   82     150/  8/ 10 1017.8R
C TOWER          1200   84     140/ 13/ 15 1017.0R
APALACHICOLA BUO 1150   84 87  160/ 10/ 12 1016.2R         2/ 3
PANAMA CITY BUOY 1150   83 87  150/ 10/ 12 1015.5R         2/ 5
MOBILE BUOY      1200   82 87  120/  2/  6 1014.5R
ORANGE BCH AL BU 1150   85 88  130/ 12/ 14 1015.2R         2/ 5
$$




USA.gov is the U.S. government's official web portal to all federal, state and local government web resources and services.